Location: Igon
(43.1667°N, 0.2333°W)
Time: 21:24:31
(UTC+00:00)

CZ-2C R/B - Pass Details

Date: 29 November 2020
Orbit: 784 x 870 km, 98.2° (Epoch: 20 January)

Event Time Altitude Azimuth Distance (km) Brightness Sun altitude
Rises 06:27:02 0° 163° (SSE) 3,413 6.5 -8.1°
Reaches altitude 10° 06:29:25 10° 162° (SSE) 2,471 5.8 -7.7°
Maximum altitude 06:34:55 83° 75° (ENE) 849 2.8 -6.7°
Drops below altitude 10° 06:40:19 10° 348° (NNW) 2,432 4.8 -5.8°
Sets 06:42:39 0° 348° (NNW) 3,356 5.5 -5.5°
